Search your local weather  

 

Hazardous Weather Conditions

No active alerts for HOUSTON, TEXAS

Current Conditions: HOUSTON, TEXAS

Fair


78.0 F

Last Updated on Jun 18 2019, 7:53 am CDT
Humidity: 85%
Wind Speed: 4.6 mph
Barometer 29.94 in
Dewpoint: 73.0 F
Visibility: 10.00 mi
Precip: --
Heat Index: NA
Wind Chill: NA
Current conditions at:

Houston, Hooks Memorial Airport, TX (KDWH)

Lat: 30.0675 Lon: -95.55611

Local Radar Image active severe weather and emergency alerts image image weather storm and storm spotter reports image weather observation monitoring service image
Local
Radar
Active
Alerts
Storm Reports Weather
Monitoring

Weather Alert Notification Services


ialert severe weather and emergency alerts by text message and email ialert daily weather forecast by email and text message service ialert real-time weather-observation monitoring and alert notification service ialert storm report monitoring alert notification

Observation History for HOUSTON, TEXAS


Time Wind
(mph)
Vis
(mi)
Weather Precip (in) Temperature (F) Relative
Humidity
Wind
Chill
(°F)
Heat
Index
(°F)
Pressure
Air Dwpt altimeter
(in)
sea level
(mb)
7:53 am CDT 4.6 10.00 Fair -- 78.0 73.0 85% NA NA 29.94 1013.5
6:53 am CDT SW 3.5 9.00 Fair -- 73.0 71.1 94% NA NA 29.92 1013.0
5:53 am CDT SW 3.5 10.00 Fair -- 75.0 72.0 90% NA NA 29.92 1012.8
4:53 am CDT SW 5.8 10.00 A Few Clouds -- 75.0 72.0 90% NA NA 29.91 1012.4
3:53 am CDT N 0.0 10.00 Mostly Cloudy -- 75.0 72.0 90% NA NA 29.90 1012.4
2:53 am CDT N 0.0 10.00 Partly Cloudy -- 74.0 71.1 91% NA NA 29.90 1012.4
1:53 am CDT N 0.0 10.00 Fair -- 75.0 71.1 88% NA NA 29.91 1012.5
12:53 am CDT N 0.0 10.00 Mostly Cloudy -- 78.0 71.1 79% NA NA 29.91 1012.5
11:53 pm CDT N 0.0 10.00 Mostly Cloudy -- 79.0 71.1 77% NA NA 29.92 1012.8
10:53 pm CDT SE 8.1 10.00 Mostly Cloudy -- 80.0 71.1 74% NA 83 29.90 1012.2
9:53 pm CDT SE 5.8 10.00 Mostly Cloudy -- 81.0 70.0 69% NA 85 29.89 1011.9
8:53 pm CDT E 6.9 10.00 A Few Clouds -- 82.0 70.0 67% NA 86 29.88 1011.5
7:53 pm CDT N 3.5 10.00 Partly Cloudy -- 86.0 66.9 53% NA 89 29.86 1010.9
6:53 pm CDT N 4.6 10.00 Fair -- 87.0 69.1 55% NA 91 29.84 1010.1
5:53 pm CDT N 4.6 10.00 Fair -- 88.0 69.1 54% NA 92 29.84 1010.3
4:53 pm CDT N 0.0 10.00 Fair -- 88.0 68.0 52% NA 92 29.86 1011.0
3:53 pm CDT N 0.0 10.00 Fair -- 86.0 68.0 55% NA 89 29.88 1011.5
2:53 pm CDT N 0.0 10.00 Fair -- 85.0 69.1 59% NA 89 29.91 1012.5
1:53 pm CDT N 0.0 10.00 Fair -- 83.0 69.1 63% NA 87 29.92 1013.0
12:53 pm CDT S 5.8 10.00 Fair -- 79.0 69.1 72% NA NA 29.94 1013.6
11:53 am CDT W 5.8 10.00 Partly Cloudy -- 76.0 69.1 79% NA NA 29.94 1013.4
10:53 am CDT W 9.2 10.00 Partly Cloudy -- 74.0 68.0 82% NA NA 29.93 1013.2
9:53 am CDT N 3.5 10.00 Fair -- 72.0 68.0 87% NA NA 29.92 1012.8

Regional Weather Observation

John Dunn Helistop, TX (KMCJ)

Overcast
81.0 F

Houston, Houston Hobby Airport, TX (KHOU)

Partly Cloudy
77.0 F

Houston Southwest Airport, TX (KAXH)

Overcast
75.0 F

Conroe, Montgomery County Airport, TX (KCXO)

Fair
77.0 F

Houston, Pearland Regional Airport, TX (KLVJ)

Fair
78.0 F

Cleveland, TX (K6R3)

Partly Cloudy
73.0 F